Find Local Weather

World > North America > United States > Virginia

Virginia Beach, Virginia Regional Weather

Lat: 36.85N, Lon: 75.98W
Wx Zone: VAZ098
Feedback
Expires:201810151300;;219252
ASUS41 KAKQ 151215
RWRAKQ

REGIONAL WEATHER ROUNDUP
NATIONAL WEATHER SERVICE WAKEFIELD VA
800 AM EDT MON OCT 15 2018

Note: "fair" indicates few or no clouds below 12,000 feet with no
significant weather and/or obstructions to visibility. * = Denotes
station may not report precipitation (e.g., rain,snow,etc.),
thunder or fog.


VAZ088>098-151300-
SOUTHEAST VIRGINIA
  
CITY           SKY/WX    TMP DP  RH WIND       PRES   REMARKS
NORFOLK        MOCLDY    67  60  78 S8        30.16F                  
VIRGINIA BEACH MOCLDY    68  62  81 S5        30.16S                  
NORFOLK NAVAL  MOCLDY    67  59  75 S7        30.18S                  
WEST POINT*    CLOUDY    62  59  89 S3        30.18S                  
SALUDA*        NOT AVBL                                               
NEWPORT NEWS   MOCLDY    67  60  78 S12       30.16F                  
LANGLEY AFB    MOCLDY    68  61  77 S14       30.16F                  
FORT EUSTIS    MOCLDY    66  60  80 S9        30.14S                  
WILLIAMSBURG*  FAIR      64  57  77 CALM      30.18R                  
HR EXEC AP*    PTSUNNY   63  59  87 CALM      30.18S                  
FRANKLIN*      MOCLDY    63  62  96 CALM      30.18S                  
US460-WAKEFLD  FAIR      61  58  90 CALM      30.17S                  
$$


SKY/WX - Weather  TMP - Temperature  DP - Dew Point  RH - Relative Humidity
WIND - Wind Direction/Speed PRES - Barometric Pressure